| time (UTC) | temp F | wind direction | speed MPH | gust MPH | rain 1hr in | rain 24hr in | rain mn in | humidity % | barometer mb |
| 20260506073033 | 55 | 336 | 0.0 | 0.0 | 0.00 | 0.00 | 0.00 | 85 | 1020.0 |
| 20260506072530 | 55 | 336 | 0.0 | 0.0 | 0.00 | 0.00 | 0.00 | 85 | 1020.4 |
| 20260506072028 | 55 | 332 | 0.0 | 0.0 | 0.00 | 0.00 | 0.00 | 85 | 1020.0 |
| 20260506071525 | 56 | 334 | 0.0 | 0.0 | 0.00 | 0.00 | 0.00 | 85 | 1020.4 |
| 20260506071022 | 56 | 336 | 0.0 | 0.0 | 0.00 | 0.00 | 0.00 | 85 | 1020.0 |
| 20260506070520 | 56 | 334 | 0.0 | 0.0 | 0.00 | 0.00 | 0.00 | 85 | 1020.0 |
| 20260506062457 | 57 | 332 | 0.0 | 0.0 | 0.00 | 0.00 | 0.00 | 85 | 1019.7 |
| 20260506061953 | 57 | 340 | 0.0 | 0.0 | 0.00 | 0.00 | 0.00 | 85 | 1019.7 |
| 20260506061449 | 57 | 339 | 0.0 | 0.0 | 0.00 | 0.00 | 0.00 | 85 | 1019.3 |
| 20260506060947 | 57 | 338 | 0.0 | 0.0 | 0.00 | 0.00 | 0.00 | 84 | 1019.3 |
| 20260506060446 | 57 | 339 | 0.0 | 0.0 | 0.00 | 0.00 | 0.00 | 84 | 1019.7 |
| 20260506050914 | 58 | 341 | 0.0 | 0.0 | 0.00 | 0.00 | 0.00 | 83 | 1019.3 |
| 20260506050412 | 58 | 343 | 0.0 | 0.0 | 0.00 | 0.00 | 0.00 | 83 | 1019.3 |
| 20260506044902 | 58 | 336 | 0.0 | 0.0 | 0.00 | 0.00 | 0.00 | 81 | 1018.7 |
| 20260506044400 | 58 | 337 | 0.0 | 0.0 | 0.00 | 0.00 | 0.00 | 81 | 1018.7 |
| 20260506043857 | 58 | 346 | 0.0 | 0.0 | 0.00 | 0.00 | 0.00 | 82 | 1018.7 |
| 20260506043354 | 58 | 335 | 0.0 | 0.0 | 0.00 | 0.00 | 0.00 | 82 | 1018.7 |
| 20260506042852 | 58 | 339 | 0.0 | 0.0 | 0.00 | 0.00 | 0.00 | 82 | 1018.3 |
| 20260506042351 | 58 | 339 | 0.0 | 0.0 | 0.00 | 0.00 | 0.00 | 82 | 1018.7 |
| 20260506041849 | 59 | 342 | 0.0 | 0.0 | 0.00 | 0.00 | 0.00 | 82 | 1018.7 |
| 20260506041346 | 59 | 337 | 0.0 | 0.0 | 0.00 | 0.00 | 0.00 | 81 | 1018.7 |
| 20260506040843 | 59 | 338 | 0.0 | 0.0 | 0.00 | 0.00 | 0.00 | 81 | 1018.7 |
| 20260506040341 | 59 | 346 | 0.0 | 0.0 | 0.00 | 0.00 | 0.00 | 80 | 1018.3 |
| 20260506035836 | 59 | 337 | 0.0 | 0.0 | 0.00 | 0.00 | 0.00 | 80 | 1018.3 |
| 20260506035334 | 59 | 336 | 0.0 | 0.0 | 0.00 | 0.00 | 0.00 | 80 | 1018.3 |
| 20260506034831 | 60 | 337 | 0.0 | 0.0 | 0.00 | 0.00 | 0.00 | 79 | 1018.7 |
| 20260506034328 | 60 | 308 | 0.0 | 0.0 | 0.00 | 0.00 | 0.00 | 79 | 1018.3 |
| 20260506033825 | 60 | 339 | 0.0 | 0.0 | 0.00 | 0.00 | 0.00 | 79 | 1018.0 |
| 20260506033322 | 60 | 342 | 0.0 | 0.0 | 0.00 | 0.00 | 0.00 | 79 | 1018.0 |
| 20260506032819 | 60 | 342 | 0.0 | 0.0 | 0.00 | 0.00 | 0.00 | 78 | 1018.0 |
| 20260506032316 | 60 | 295 | 0.0 | 1.0 | 0.00 | 0.00 | 0.00 | 78 | 1018.0 |
| 20260506031813 | 60 | 340 | 1.0 | 1.0 | 0.00 | 0.00 | 0.00 | 78 | 1017.6 |
| 20260506031310 | 60 | 300 | 0.0 | 1.0 | 0.00 | 0.00 | 0.00 | 78 | 1017.6 |
| 20260506030808 | 60 | 338 | 0.0 | 1.0 | 0.00 | 0.00 | 0.00 | 78 | 1017.3 |
| 20260506030306 | 60 | 226 | 2.0 | 2.0 | 0.00 | 0.00 | 0.00 | 77 | 1017.6 |
| 20260506025802 | 60 | 270 | 1.0 | 1.0 | 0.00 | 0.00 | 0.00 | 78 | 1017.6 |
| 20260506025258 | 60 | 297 | 0.0 | 1.0 | 0.00 | 0.00 | 0.00 | 77 | 1017.6 |
| 20260506024756 | 60 | 339 | 0.0 | 1.0 | 0.00 | 0.00 | 0.00 | 77 | 1017.3 |
| 20260506024252 | 60 | 266 | 2.0 | 2.0 | 0.00 | 0.00 | 0.00 | 77 | 1017.3 |
| 20260506023748 | 60 | 337 | 0.0 | 2.0 | 0.00 | 0.00 | 0.00 | 77 | 1017.3 |
| 20260506023246 | 61 | 303 | 2.0 | 3.0 | 0.00 | 0.00 | 0.00 | 76 | 1017.0 |
| 20260506022742 | 61 | 306 | 1.0 | 2.0 | 0.00 | 0.00 | 0.00 | 76 | 1017.0 |
| 20260506022240 | 61 | 318 | 0.0 | 2.0 | 0.00 | 0.00 | 0.00 | 75 | 1017.0 |
| 20260506021738 | 61 | 339 | 0.0 | 1.0 | 0.00 | 0.00 | 0.00 | 75 | 1017.3 |
| 20260506021235 | 61 | 325 | 2.0 | 2.0 | 0.00 | 0.00 | 0.00 | 74 | 1017.0 |
| 20260506020731 | 61 | 315 | 0.0 | 2.0 | 0.00 | 0.00 | 0.00 | 74 | 1017.0 |
| 20260506020229 | 61 | 327 | 1.0 | 3.0 | 0.00 | 0.00 | 0.00 | 74 | 1017.0 |
| 20260506015727 | 62 | 246 | 2.0 | 4.0 | 0.00 | 0.00 | 0.00 | 73 | 1017.0 |
| 20260506015224 | 62 | 268 | 2.0 | 3.0 | 0.00 | 0.00 | 0.00 | 71 | 1017.0 |
| 20260506014721 | 63 | 326 | 0.0 | 1.0 | 0.00 | 0.00 | 0.00 | 69 | 1017.0 |
| 20260506014217 | 63 | 333 | 0.0 | 1.0 | 0.00 | 0.00 | 0.00 | 70 | 1017.0 |
| 20260506013715 | 63 | 313 | 4.0 | 6.0 | 0.00 | 0.00 | 0.00 | 69 | 1016.6 |
| 20260506013212 | 63 | 317 | 1.0 | 2.0 | 0.00 | 0.00 | 0.00 | 70 | 1017.0 |
| 20260506012708 | 62 | 333 | 0.0 | 1.0 | 0.00 | 0.00 | 0.00 | 70 | 1017.0 |
| 20260506012205 | 62 | 298 | 2.0 | 3.0 | 0.00 | 0.00 | 0.00 | 70 | 1016.6 |
| 20260506011702 | 62 | 309 | 2.0 | 3.0 | 0.00 | 0.00 | 0.00 | 69 | 1017.0 |
| 20260506011158 | 62 | 262 | 2.0 | 2.0 | 0.00 | 0.00 | 0.00 | 70 | 1017.0 |
| 20260506010657 | 62 | 238 | 2.0 | 4.0 | 0.00 | 0.00 | 0.00 | 70 | 1017.3 |
| 20260506010154 | 63 | 181 | 2.0 | 2.0 | 0.00 | 0.00 | 0.00 | 69 | 1017.0 |
| 20260506005651 | 63 | 178 | 2.0 | 2.0 | 0.00 | 0.00 | 0.00 | 69 | 1016.6 |
| 20260506005147 | 63 | 311 | 1.0 | 2.0 | 0.00 | 0.00 | 0.00 | 69 | 1017.0 |
| 20260506004643 | 63 | 335 | 1.0 | 4.0 | 0.00 | 0.00 | 0.00 | 67 | 1017.0 |
| 20260506004141 | 63 | 256 | 2.0 | 2.0 | 0.00 | 0.00 | 0.00 | 66 | 1017.0 |
| 20260506003637 | 63 | 258 | 0.0 | 2.0 | 0.00 | 0.00 | 0.00 | 66 | 1017.0 |
| 20260506003133 | 63 | 335 | 0.0 | 2.0 | 0.00 | 0.00 | 0.00 | 66 | 1016.6 |
| 20260506002630 | 63 | 209 | 4.0 | 6.0 | 0.00 | 0.00 | 0.00 | 65 | 1016.6 |
| 20260506002126 | 63 | 303 | 3.0 | 6.0 | 0.00 | 0.00 | 0.00 | 66 | 1016.6 |
| 20260506001621 | 63 | 248 | 2.0 | 4.0 | 0.00 | 0.00 | 0.00 | 66 | 1016.6 |
| 20260506001119 | 63 | 214 | 2.0 | 4.0 | 0.00 | 0.00 | 0.00 | 65 | 1017.0 |
| 20260506000616 | 63 | 279 | 4.0 | 6.0 | 0.00 | 0.00 | 0.00 | 65 | 1016.6 |
| 20260506000113 | 64 | 216 | 3.0 | 4.0 | 0.00 | 0.00 | 0.00 | 63 | 1016.6 |
| 20260505235612 | 64 | 189 | 2.0 | 7.0 | 0.00 | 0.00 | 0.00 | 63 | 1016.6 |
| 20260505235108 | 64 | 306 | 4.0 | 6.0 | 0.00 | 0.00 | 0.00 | 63 | 1017.0 |
| 20260505234605 | 64 | 209 | 4.0 | 4.0 | 0.00 | 0.00 | 0.00 | 63 | 1016.6 |
| 20260505234102 | 64 | 129 | 2.0 | 6.0 | 0.00 | 0.00 | 0.00 | 65 | 1016.6 |
| 20260505233600 | 63 | 286 | 2.0 | 7.0 | 0.00 | 0.00 | 0.00 | 66 | 1017.0 |
| 20260505233057 | 63 | 228 | 4.0 | 7.0 | 0.00 | 0.00 | 0.00 | 67 | 1017.0 |
| 20260505232555 | 63 | 278 | 2.0 | 6.0 | 0.00 | 0.00 | 0.00 | 67 | 1017.0 |
| 20260505232052 | 62 | 274 | 3.0 | 4.0 | 0.00 | 0.00 | 0.00 | 68 | 1016.6 |
| 20260505231548 | 62 | 267 | 5.0 | 6.0 | 0.00 | 0.00 | 0.00 | 68 | 1017.0 |
| 20260505231047 | 62 | 231 | 2.0 | 6.0 | 0.00 | 0.00 | 0.00 | 69 | 1016.6 |
| 20260505230544 | 62 | 275 | 4.0 | 6.0 | 0.00 | 0.00 | 0.00 | 68 | 1017.0 |
| 20260505230041 | 62 | 298 | 1.0 | 3.0 | 0.00 | 0.00 | 0.00 | 69 | 1017.0 |
| 20260505225537 | 62 | 311 | 4.0 | 6.0 | 0.00 | 0.00 | 0.00 | 68 | 1017.0 |
| 20260505225033 | 63 | 110 | 3.0 | 7.0 | 0.00 | 0.00 | 0.00 | 67 | 1017.0 |
| 20260505224531 | 64 | 255 | 5.0 | 7.0 | 0.00 | 0.00 | 0.00 | 66 | 1017.3 |
| 20260505224028 | 64 | 278 | 2.0 | 3.0 | 0.00 | 0.00 | 0.00 | 66 | 1017.0 |
| 20260505223525 | 65 | 193 | 4.0 | 6.0 | 0.00 | 0.00 | 0.00 | 65 | 1017.0 |
| 20260505223021 | 64 | 300 | 1.0 | 6.0 | 0.00 | 0.00 | 0.00 | 64 | 1017.0 |
| 20260505222518 | 64 | 312 | 2.0 | 8.0 | 0.00 | 0.00 | 0.00 | 65 | 1017.3 |
| 20260505222013 | 65 | 237 | 2.0 | 7.0 | 0.00 | 0.00 | 0.00 | 64 | 1017.3 |
| 20260505221511 | 64 | 192 | 4.0 | 7.0 | 0.00 | 0.00 | 0.00 | 65 | 1017.3 |
| 20260505221008 | 65 | 342 | 3.0 | 4.0 | 0.00 | 0.00 | 0.00 | 63 | 1017.3 |
| 20260505220504 | 63 | 258 | 8.0 | 9.0 | 0.00 | 0.00 | 0.00 | 65 | 1017.3 |
| 20260505220002 | 64 | 242 | 6.0 | 10.0 | 0.00 | 0.00 | 0.00 | 64 | 1017.3 |
| 20260505215500 | 64 | 239 | 6.0 | 11.0 | 0.00 | 0.00 | 0.00 | 64 | 1017.3 |
| 20260505214958 | 65 | 277 | 4.0 | 9.0 | 0.00 | 0.00 | 0.00 | 63 | 1017.6 |
| 20260505214456 | 65 | 216 | 5.0 | 7.0 | 0.00 | 0.00 | 0.00 | 63 | 1017.3 |
| 20260505213952 | 65 | 179 | 3.0 | 8.0 | 0.00 | 0.00 | 0.00 | 64 | 1017.3 |
| 20260505213450 | 64 | 289 | 0.0 | 8.0 | 0.00 | 0.00 | 0.00 | 65 | 1017.3 |
| 20260505212946 | 65 | 253 | 7.0 | 13.0 | 0.00 | 0.00 | 0.00 | 65 | 1017.6 |
| 20260505212443 | 65 | 330 | 1.0 | 8.0 | 0.00 | 0.00 | 0.00 | 66 | 1017.6 |
| 20260505211939 | 65 | 209 | 5.0 | 8.0 | 0.00 | 0.00 | 0.00 | 65 | 1017.3 |
| 20260505211437 | 65 | 273 | 1.0 | 8.0 | 0.00 | 0.00 | 0.00 | 64 | 1017.6 |
| 20260505210933 | 65 | 354 | 2.0 | 3.0 | 0.00 | 0.00 | 0.00 | 62 | 1017.6 |
| 20260505210431 | 65 | 247 | 4.0 | 9.0 | 0.00 | 0.00 | 0.00 | 59 | 1017.6 |
| 20260505205927 | 65 | 260 | 6.0 | 9.0 | 0.00 | 0.00 | 0.00 | 60 | 1017.3 |
| 20260505205426 | 66 | 198 | 3.0 | 8.0 | 0.00 | 0.00 | 0.00 | 61 | 1017.6 |
| 20260505204922 | 65 | 237 | 5.0 | 9.0 | 0.00 | 0.00 | 0.00 | 59 | 1017.6 |
| 20260505204420 | 66 | 252 | 5.0 | 10.0 | 0.00 | 0.00 | 0.00 | 59 | 1017.6 |
| 20260505203917 | 66 | 235 | 4.0 | 8.0 | 0.00 | 0.00 | 0.00 | 64 | 1017.3 |
| 20260505203413 | 65 | 170 | 6.0 | 10.0 | 0.00 | 0.00 | 0.00 | 61 | 1017.3 |
| 20260505202910 | 65 | 189 | 6.0 | 10.0 | 0.00 | 0.00 | 0.00 | 62 | 1017.3 |
| 20260505202406 | 65 | 242 | 4.0 | 10.0 | 0.00 | 0.00 | 0.00 | 62 | 1017.3 |
| 20260505201903 | 65 | 283 | 3.0 | 8.0 | 0.00 | 0.00 | 0.00 | 65 | 1017.3 |
| 20260505201400 | 64 | 356 | 4.0 | 9.0 | 0.00 | 0.00 | 0.00 | 67 | 1017.6 |
| 20260505200858 | 63 | 265 | 4.0 | 9.0 | 0.00 | 0.00 | 0.00 | 67 | 1017.6 |
| 20260505200355 | 64 | 235 | 4.0 | 7.0 | 0.00 | 0.00 | 0.00 | 67 | 1017.6 |
| 20260505195850 | 65 | 284 | 2.0 | 8.0 | 0.00 | 0.00 | 0.00 | 65 | 1017.6 |
| 20260505195348 | 65 | 286 | 3.0 | 9.0 | 0.00 | 0.00 | 0.00 | 63 | 1017.6 |
| 20260505194845 | 67 | 238 | 5.0 | 7.0 | 0.00 | 0.00 | 0.00 | 59 | 1017.6 |
| 20260505194342 | 65 | 239 | 2.0 | 4.0 | 0.00 | 0.00 | 0.00 | 64 | 1017.6 |
| 20260505193837 | 66 | 261 | 3.0 | 7.0 | 0.00 | 0.00 | 0.00 | 59 | 1017.6 |
| 20260505193336 | 65 | 287 | 2.0 | 8.0 | 0.00 | 0.00 | 0.00 | 61 | 1017.6 |
| 20260505192833 | 65 | 203 | 5.0 | 7.0 | 0.00 | 0.00 | 0.00 | 63 | 1017.6 |
| 20260505192331 | 65 | 294 | 2.0 | 8.0 | 0.00 | 0.00 | 0.00 | 63 | 1017.6 |
| 20260505191828 | 64 | 278 | 2.0 | 7.0 | 0.00 | 0.00 | 0.00 | 65 | 1017.6 |
| 20260505191327 | 64 | 273 | 2.0 | 8.0 | 0.00 | 0.00 | 0.00 | 62 | 1017.6 |
| 20260505190823 | 65 | 190 | 5.0 | 8.0 | 0.00 | 0.00 | 0.00 | 63 | 1017.6 |
| 20260505190319 | 65 | 306 | 2.0 | 8.0 | 0.00 | 0.00 | 0.00 | 63 | 1017.6 |
| 20260505185815 | 64 | 263 | 3.0 | 8.0 | 0.00 | 0.00 | 0.00 | 65 | 1018.0 |
| 20260505185311 | 65 | 246 | 4.0 | 7.0 | 0.00 | 0.00 | 0.00 | 65 | 1017.6 |
| 20260505184807 | 65 | 261 | 3.0 | 10.0 | 0.00 | 0.00 | 0.00 | 63 | 1017.6 |
| 20260505184305 | 66 | 286 | 4.0 | 4.0 | 0.00 | 0.00 | 0.00 | 64 | 1017.6 |
| 20260505183801 | 65 | 26 | 1.0 | 8.0 | 0.00 | 0.00 | 0.00 | 66 | 1017.6 |
| 20260505183258 | 64 | 217 | 3.0 | 7.0 | 0.00 | 0.00 | 0.00 | 67 | 1017.6 |
| 20260505182755 | 64 | 265 | 3.0 | 7.0 | 0.00 | 0.00 | 0.00 | 66 | 1017.6 |
| 20260505182252 | 63 | 323 | 1.0 | 6.0 | 0.00 | 0.00 | 0.00 | 68 | 1017.6 |
| 20260505181748 | 63 | 260 | 4.0 | 8.0 | 0.00 | 0.00 | 0.00 | 67 | 1017.6 |
| 20260505181246 | 64 | 267 | 5.0 | 7.0 | 0.00 | 0.00 | 0.00 | 66 | 1017.6 |
| 20260505180742 | 63 | 262 | 3.0 | 7.0 | 0.00 | 0.00 | 0.00 | 68 | 1017.6 |
| 20260505180239 | 64 | 302 | 3.0 | 4.0 | 0.00 | 0.00 | 0.00 | 66 | 1017.3 |
| 20260505175735 | 64 | 332 | 1.0 | 2.0 | 0.00 | 0.00 | 0.00 | 67 | 1017.3 |
| 20260505175232 | 63 | 349 | 1.0 | 8.0 | 0.00 | 0.00 | 0.00 | 69 | 1017.6 |
| 20260505174729 | 63 | 311 | 1.0 | 2.0 | 0.00 | 0.00 | 0.00 | 70 | 1017.3 |
| 20260505174226 | 63 | 221 | 4.0 | 6.0 | 0.00 | 0.00 | 0.00 | 70 | 1017.3 |
| 20260505173721 | 65 | 257 | 4.0 | 7.0 | 0.00 | 0.00 | 0.00 | 67 | 1017.3 |
| 20260505173219 | 64 | 280 | 2.0 | 3.0 | 0.00 | 0.00 | 0.00 | 69 | 1017.0 |
| 20260505172715 | 62 | 340 | 1.0 | 4.0 | 0.00 | 0.00 | 0.00 | 70 | 1017.6 |
| 20260505172212 | 63 | 289 | 2.0 | 4.0 | 0.00 | 0.00 | 0.00 | 68 | 1017.3 |
| 20260505171712 | 63 | 261 | 3.0 | 4.0 | 0.00 | 0.00 | 0.00 | 69 | 1017.3 |
| 20260505171210 | 65 | 243 | 3.0 | 6.0 | 0.00 | 0.00 | 0.00 | 67 | 1017.3 |
| 20260505170706 | 64 | 317 | 0.0 | 3.0 | 0.00 | 0.00 | 0.00 | 67 | 1017.0 |
| 20260505170203 | 64 | 349 | 2.0 | 6.0 | 0.00 | 0.00 | 0.00 | 68 | 1017.3 |
| 20260505165658 | 64 | 230 | 2.0 | 7.0 | 0.00 | 0.00 | 0.00 | 68 | 1017.0 |
| 20260505165154 | 65 | 235 | 3.0 | 4.0 | 0.00 | 0.00 | 0.00 | 64 | 1017.0 |
| 20260505164649 | 64 | 307 | 2.0 | 7.0 | 0.00 | 0.00 | 0.00 | 70 | 1017.0 |
| 20260505164147 | 63 | 329 | 2.0 | 4.0 | 0.00 | 0.00 | 0.00 | 70 | 1017.0 |
| 20260505163645 | 63 | 293 | 1.0 | 2.0 | 0.00 | 0.00 | 0.00 | 69 | 1017.0 |
| 20260505163143 | 63 | 241 | 4.0 | 6.0 | 0.00 | 0.00 | 0.00 | 68 | 1017.0 |
| 20260505162640 | 62 | 206 | 2.0 | 2.0 | 0.00 | 0.00 | 0.00 | 69 | 1017.0 |
| 20260505162138 | 62 | 256 | 3.0 | 6.0 | 0.00 | 0.00 | 0.00 | 70 | 1016.6 |
| 20260505161635 | 63 | 331 | 2.0 | 7.0 | 0.00 | 0.00 | 0.00 | 69 | 1016.6 |
| 20260505161132 | 63 | 353 | 2.0 | 3.0 | 0.00 | 0.00 | 0.00 | 68 | 1016.6 |
| 20260505160630 | 63 | 212 | 4.0 | 6.0 | 0.00 | 0.00 | 0.00 | 67 | 1016.6 |
| 20260505160127 | 64 | 356 | 0.0 | 4.0 | 0.00 | 0.00 | 0.00 | 67 | 1016.6 |
| 20260505153107 | 63 | 260 | 2.0 | 3.0 | 0.00 | 0.00 | 0.00 | 69 | 1016.3 |
| 20260505152603 | 63 | 325 | 1.0 | 2.0 | 0.00 | 0.00 | 0.00 | 69 | 1016.6 |
| 20260505152058 | 62 | 265 | 1.0 | 2.0 | 0.00 | 0.00 | 0.00 | 70 | 1016.6 |
| 20260505151554 | 61 | 343 | 0.0 | 1.0 | 0.00 | 0.00 | 0.00 | 72 | 1016.6 |
| 20260505151052 | 61 | 340 | 0.0 | 2.0 | 0.00 | 0.00 | 0.00 | 72 | 1016.3 |
| 20260505150548 | 62 | 317 | 0.0 | 2.0 | 0.00 | 0.00 | 0.00 | 71 | 1016.6 |
| 20260505140513 | 58 | 353 | 0.0 | 0.0 | 0.00 | 0.00 | 0.00 | 88 | 1016.0 |
| 20260505124926 | 56 | 334 | 0.0 | 0.0 | 0.00 | 0.00 | 0.00 | 88 | 1016.0 |
| 20260505124423 | 56 | 334 | 0.0 | 1.0 | 0.00 | 0.00 | 0.00 | 88 | 1016.0 |
| 20260505123919 | 55 | 320 | 0.0 | 0.0 | 0.00 | 0.00 | 0.00 | 88 | 1016.0 |
| 20260505123416 | 55 | 333 | 0.0 | 0.0 | 0.00 | 0.00 | 0.00 | 88 | 1015.6 |
| 20260505122912 | 55 | 335 | 0.0 | 0.0 | 0.00 | 0.00 | 0.00 | 88 | 1015.6 |
| 20260505122409 | 55 | 337 | 0.0 | 0.0 | 0.00 | 0.00 | 0.00 | 88 | 1016.0 |
| 20260505121906 | 55 | 337 | 0.0 | 0.0 | 0.00 | 0.00 | 0.00 | 88 | 1016.0 |
| 20260505121403 | 55 | 337 | 0.0 | 0.0 | 0.00 | 0.00 | 0.00 | 87 | 1016.0 |
| 20260505120859 | 56 | 339 | 0.0 | 0.0 | 0.00 | 0.00 | 0.00 | 87 | 1016.0 |
| 20260505120355 | 56 | 337 | 0.0 | 0.0 | 0.00 | 0.00 | 0.00 | 87 | 1016.0 |
| 20260505115854 | 56 | 335 | 0.0 | 0.0 | 0.00 | 0.00 | 0.00 | 86 | 1016.0 |
| 20260505115351 | 56 | 336 | 0.0 | 0.0 | 0.00 | 0.00 | 0.00 | 86 | 1016.0 |
| 20260505114849 | 57 | 337 | 0.0 | 0.0 | 0.00 | 0.00 | 0.00 | 86 | 1016.0 |
| 20260505114346 | 57 | 321 | 0.0 | 0.0 | 0.00 | 0.00 | 0.00 | 86 | 1016.0 |
| 20260505113842 | 57 | 325 | 0.0 | 0.0 | 0.00 | 0.00 | 0.00 | 86 | 1016.0 |
| 20260505113339 | 57 | 332 | 0.0 | 0.0 | 0.00 | 0.00 | 0.00 | 85 | 1016.0 |
| 20260505112834 | 57 | 307 | 0.0 | 0.0 | 0.00 | 0.00 | 0.00 | 85 | 1016.0 |
| 20260505112332 | 57 | 323 | 0.0 | 0.0 | 0.00 | 0.00 | 0.00 | 85 | 1016.0 |
| 20260505111827 | 57 | 330 | 1.0 | 1.0 | 0.00 | 0.00 | 0.00 | 84 | 1016.0 |
| 20260505111323 | 57 | 336 | 0.0 | 0.0 | 0.00 | 0.00 | 0.00 | 84 | 1016.0 |
| 20260505110819 | 58 | 323 | 0.0 | 0.0 | 0.00 | 0.00 | 0.00 | 83 | 1016.0 |
| 20260505110317 | 58 | 335 | 0.0 | 0.0 | 0.00 | 0.00 | 0.00 | 83 | 1015.6 |
| 20260505101751 | 58 | 330 | 0.0 | 0.0 | 0.00 | 0.00 | 0.00 | 81 | 1016.0 |
| 20260505101247 | 58 | 332 | 0.0 | 0.0 | 0.00 | 0.00 | 0.00 | 81 | 1016.0 |
| 20260505100743 | 59 | 340 | 0.0 | 0.0 | 0.00 | 0.00 | 0.00 | 81 | 1016.0 |
| 20260505100240 | 59 | 341 | 0.0 | 0.0 | 0.00 | 0.00 | 0.00 | 80 | 1016.3 |
| 20260505095736 | 59 | 342 | 0.0 | 0.0 | 0.00 | 0.00 | 0.00 | 79 | 1016.0 |
| 20260505095234 | 59 | 338 | 0.0 | 0.0 | 0.00 | 0.00 | 0.00 | 79 | 1016.0 |
| 20260505094729 | 59 | 334 | 0.0 | 0.0 | 0.00 | 0.00 | 0.00 | 78 | 1016.0 |
| 20260505094226 | 59 | 337 | 0.0 | 0.0 | 0.00 | 0.00 | 0.00 | 78 | 1016.3 |
| 20260505093722 | 59 | 315 | 1.0 | 1.0 | 0.00 | 0.00 | 0.00 | 77 | 1016.6 |
| 20260505093220 | 59 | 317 | 0.0 | 1.0 | 0.00 | 0.00 | 0.00 | 77 | 1016.3 |
| 20260505092716 | 59 | 335 | 0.0 | 0.0 | 0.00 | 0.00 | 0.00 | 77 | 1016.3 |
| 20260505092215 | 59 | 328 | 0.0 | 0.0 | 0.00 | 0.00 | 0.00 | 77 | 1016.6 |
| 20260505091712 | 59 | 331 | 0.0 | 0.0 | 0.00 | 0.00 | 0.00 | 77 | 1016.6 |
| 20260505091210 | 59 | 338 | 0.0 | 0.0 | 0.00 | 0.00 | 0.00 | 76 | 1016.6 |
| 20260505090707 | 59 | 338 | 0.0 | 0.0 | 0.00 | 0.00 | 0.00 | 75 | 1016.6 |
| 20260505090205 | 59 | 343 | 0.0 | 0.0 | 0.00 | 0.00 | 0.00 | 75 | 1016.6 |
| 20260505085702 | 59 | 340 | 0.0 | 0.0 | 0.00 | 0.00 | 0.00 | 76 | 1016.6 |
| 20260505085200 | 59 | 308 | 0.0 | 0.0 | 0.00 | 0.00 | 0.00 | 78 | 1016.6 |
| 20260505084657 | 59 | 336 | 0.0 | 0.0 | 0.00 | 0.00 | 0.00 | 79 | 1016.6 |
| 20260505084156 | 59 | 336 | 0.0 | 0.0 | 0.00 | 0.00 | 0.00 | 80 | 1017.0 |
| 20260505083653 | 58 | 332 | 0.0 | 0.0 | 0.00 | 0.00 | 0.00 | 81 | 1017.0 |
| 20260505083149 | 58 | 343 | 0.0 | 0.0 | 0.00 | 0.00 | 0.00 | 82 | 1017.0 |
| 20260505082646 | 58 | 339 | 0.0 | 0.0 | 0.00 | 0.00 | 0.00 | 84 | 1016.6 |
| 20260505082143 | 58 | 339 | 0.0 | 0.0 | 0.00 | 0.00 | 0.00 | 84 | 1017.0 |
| 20260505081638 | 59 | 340 | 0.0 | 0.0 | 0.00 | 0.00 | 0.00 | 85 | 1017.0 |
| 20260505081136 | 59 | 340 | 0.0 | 0.0 | 0.00 | 0.00 | 0.00 | 85 | 1016.6 |
| 20260505080633 | 59 | 338 | 0.0 | 0.0 | 0.00 | 0.00 | 0.00 | 85 | 1017.0 |